• In Slovakia
  • List of Countries
  • For 7 days
  • Water Temperature
  • Satellite Maps
  • Weather Map
  • Weather Widgets
  • user-avatar
    Login

    Hourly Weather Naftalan

    Today, 20 May, Sunday

    Time Temperature Precipitation Wind Pressure Humidity
    00:00 +21°C° 0 mm 3 mps 764 mmHg 60%
    01:00 +20°C° 0 mm 3 mps 764 mmHg 61%
    02:00 +20°C° 0 mm 3 mps 764 mmHg 63%
    03:00 +20°C° 0 mm 2 mps 764 mmHg 64%
    04:00 +21°C° 0 mm 2 mps 764 mmHg 62%
    05:00 +21°C° 0 mm 2 mps 764 mmHg 61%
    06:00 +23°C° 0 mm 2 mps 764 mmHg 59%
    07:00 +25°C° 0 mm 2 mps 764 mmHg 51%
    08:00 +27°C° 0 mm 2 mps 764 mmHg 43%
    09:00 +29°C° 0 mm 3 mps 764 mmHg 33%
    10:00 +30°C° 0 mm 3 mps 764 mmHg 30%
    11:00 +33°C° 0 mm 4 mps 764 mmHg 26%
    12:00 +34°C° 0 mm 4 mps 763 mmHg 23%
    13:00 +33°C° 0 mm 5 mps 763 mmHg 23%
    14:00 +33°C° 0 mm 5 mps 763 mmHg 23%
    15:00 +33°C° 0 mm 5 mps 762 mmHg 23%
    16:00 +30°C° 0 mm 5 mps 762 mmHg 28%
    17:00 +29°C° 0 mm 5 mps 762 mmHg 32%
    18:00 +27°C° 0 mm 4 mps 762 mmHg 37%
    19:00 +26°C° 0 mm 4 mps 762 mmHg 41%
    20:00 +25°C° 0 mm 3 mps 762 mmHg 46%
    21:00 +24°C° 0 mm 3 mps 762 mmHg 51%
    22:00 +24°C° 0.1 mm 2 mps 763 mmHg 52%
    23:00 +23°C° 0.1 mm 2 mps 763 mmHg 53%

    Tomorrow, 21 May, Monday

    Time Temperature Precipitation Wind Pressure Humidity
    00:00 +23°C° 0.1 mm 1 mps 763 mmHg 55%
    01:00 +23°C° 0 mm 1 mps 763 mmHg 56%
    02:00 +23°C° 0 mm 1 mps 763 mmHg 57%
    03:00 +22°C° 0 mm 1 mps 763 mmHg 57%
    04:00 +23°C° 0 mm 1 mps 763 mmHg 56%
    05:00 +24°C° 0 mm 1 mps 763 mmHg 55%
    06:00 +24°C° 0 mm 1 mps 763 mmHg 54%
    07:00 +26°C° 0 mm 1 mps 763 mmHg 48%
    08:00 +27°C° 0 mm 1 mps 763 mmHg 42%
    09:00 +29°C° 0 mm 1 mps 763 mmHg 36%
    10:00 +30°C° 0 mm 1 mps 763 mmHg 32%
    11:00 +32°C° 0 mm 2 mps 763 mmHg 27%
    12:00 +34°C° 0 mm 2 mps 763 mmHg 23%
    13:00 +34°C° 0 mm 3 mps 762 mmHg 22%
    14:00 +34°C° 0 mm 3 mps 762 mmHg 21%
    15:00 +34°C° 0 mm 4 mps 762 mmHg 20%
    16:00 +33°C° 0 mm 4 mps 762 mmHg 25%
    17:00 +30°C° 0 mm 4 mps 762 mmHg 30%
    18:00 +28°C° 0 mm 3 mps 762 mmHg 35%
    19:00 +27°C° 0 mm 3 mps 762 mmHg 37%
    20:00 +26°C° 0 mm 2 mps 762 mmHg 40%
    21:00 +24°C° 0 mm 2 mps 763 mmHg 43%
    22:00 +24°C° 0 mm 1 mps 763 mmHg 44%
    23:00 +24°C° 0 mm 1 mps 763 mmHg 44%

    Day after tomorrow, 22 May, Tuesday

    Time Temperature Precipitation Wind Pressure Humidity
    00:00 +24°C° 0 mm 1 mps 763 mmHg 44%
    01:00 +24°C° 0 mm 1 mps 763 mmHg 44%
    02:00 +24°C° 0 mm 2 mps 763 mmHg 44%
    03:00 +24°C° 0 mm 2 mps 763 mmHg 45%
    04:00 +24°C° 0 mm 2 mps 763 mmHg 45%
    05:00 +25°C° 0 mm 2 mps 763 mmHg 46%
    06:00 +25°C° 0 mm 1 mps 763 mmHg 46%
    07:00 +27°C° 0 mm 2 mps 764 mmHg 41%
    08:00 +28°C° 0 mm 2 mps 764 mmHg 35%
    09:00 +30°C° 0 mm 2 mps 764 mmHg 29%
    10:00 +31°C° 0 mm 3 mps 764 mmHg 27%
    11:00 +34°C° 0 mm 3 mps 764 mmHg 24%
    12:00 +35°C° 0 mm 4 mps 764 mmHg 21%
    13:00 +35°C° 0 mm 4 mps 764 mmHg 21%
    14:00 +35°C° 0 mm 5 mps 764 mmHg 21%
    15:00 +35°C° 0 mm 5 mps 764 mmHg 21%
    16:00 +33°C° 0 mm 5 mps 764 mmHg 25%
    17:00 +32°C° 0 mm 5 mps 764 mmHg 29%
    18:00 +29°C° 0 mm 4 mps 764 mmHg 33%
    19:00 +28°C° 0 mm 3 mps 764 mmHg 38%
    20:00 +26°C° 0 mm 3 mps 764 mmHg 43%
    21:00 +25°C° 0 mm 2 mps 765 mmHg 47%
    22:00 +24°C° 0 mm 2 mps 765 mmHg 48%
    23:00 +24°C° 0 mm 2 mps 765 mmHg 48%

    23 May, Wednesday

    Time Temperature Precipitation Wind Pressure Humidity
    00:00 +23°C° 0 mm 2 mps 764 mmHg 48%
    01:00 +23°C° 0 mm 2 mps 764 mmHg 49%
    02:00 +23°C° 0 mm 2 mps 764 mmHg 49%
    03:00 +21°C° 0 mm 2 mps 764 mmHg 50%
    04:00 +23°C° 0 mm 2 mps 764 mmHg 47%
    05:00 +24°C° 0 mm 2 mps 764 mmHg 45%
    06:00 +25°C° 0 mm 2 mps 764 mmHg 43%
    07:00 +26°C° 0 mm 2 mps 764 mmHg 38%
    08:00 +28°C° 0 mm 3 mps 764 mmHg 32%
    09:00 +30°C° 0 mm 3 mps 764 mmHg 27%
    10:00 +31°C° 0 mm 3 mps 764 mmHg 24%
    11:00 +33°C° 0 mm 3 mps 764 mmHg 21%
    12:00 +34°C° 0 mm 3 mps 763 mmHg 18%
    13:00 +35°C° 0 mm 3 mps 763 mmHg 17%
    14:00 +35°C° 0 mm 4 mps 763 mmHg 16%
    15:00 +35°C° 0 mm 4 mps 762 mmHg 16%
    16:00 +34°C° 0 mm 4 mps 762 mmHg 20%
    17:00 +31°C° 0 mm 3 mps 762 mmHg 23%
    18:00 +29°C° 0 mm 3 mps 762 mmHg 27%
    19:00 +28°C° 0 mm 2 mps 762 mmHg 30%
    20:00 +26°C° 0 mm 2 mps 762 mmHg 33%
    21:00 +24°C° 0 mm 2 mps 762 mmHg 36%
    22:00 +23°C° 0 mm 2 mps 762 mmHg 36%
    23:00 +23°C° 0 mm 1 mps 762 mmHg 35%

    24 May, Thursday

    Time Temperature Precipitation Wind Pressure Humidity
    00:00 +22°C° 0 mm 1 mps 761 mmHg 35%
    01:00 +21°C° 0 mm 2 mps 761 mmHg 35%
    02:00 +21°C° 0 mm 2 mps 761 mmHg 34%
    03:00 +20°C° 0 mm 3 mps 760 mmHg 33%
    04:00 +21°C° 0 mm 3 mps 760 mmHg 33%
    05:00 +22°C° 0 mm 3 mps 760 mmHg 32%
    06:00 +22°C° 0 mm 4 mps 760 mmHg 31%
    07:00 +25°C° 0 mm 4 mps 760 mmHg 28%
    08:00 +28°C° 0 mm 4 mps 760 mmHg 24%
    09:00 +30°C° 0 mm 4 mps 760 mmHg 20%
    10:00 +31°C° 0 mm 3 mps 760 mmHg 19%
    11:00 +33°C° 0 mm 3 mps 760 mmHg 18%
    12:00 +34°C° 0 mm 3 mps 760 mmHg 18%
    13:00 +34°C° 0 mm 4 mps 759 mmHg 19%
    14:00 +34°C° 0 mm 4 mps 759 mmHg 20%
    15:00 +34°C° 0 mm 4 mps 759 mmHg 21%
    16:00 +32°C° 0 mm 4 mps 759 mmHg 29%
    17:00 +29°C° 0 mm 4 mps 759 mmHg 37%
    18:00 +27°C° 0 mm 3 mps 759 mmHg 44%
    19:00 +26°C° 0 mm 3 mps 759 mmHg 48%
    20:00 +25°C° 0 mm 2 mps 759 mmHg 52%
    21:00 +24°C° 0 mm 2 mps 759 mmHg 56%
    22:00 +23°C° 0 mm 2 mps 759 mmHg 58%
    23:00 +23°C° 0 mm 2 mps 759 mmHg 59%

    25 May, Friday

    Time Temperature Precipitation Wind Pressure Humidity
    00:00 +21°C° 0 mm 2 mps 759 mmHg 60%
    01:00 +21°C° 0 mm 2 mps 759 mmHg 61%
    02:00 +20°C° 0 mm 2 mps 758 mmHg 61%
    03:00 +20°C° 0 mm 2 mps 758 mmHg 61%
    04:00 +21°C° 0 mm 2 mps 759 mmHg 58%
    05:00 +23°C° 0 mm 2 mps 759 mmHg 55%
    06:00 +23°C° 0 mm 2 mps 759 mmHg 52%
    07:00 +25°C° 0 mm 2 mps 759 mmHg 46%
    08:00 +27°C° 0 mm 2 mps 759 mmHg 40%
    09:00 +29°C° 0 mm 2 mps 759 mmHg 34%
    10:00 +30°C° 0 mm 3 mps 759 mmHg 31%
    11:00 +31°C° 0 mm 3 mps 759 mmHg 28%
    12:00 +33°C° 0 mm 3 mps 758 mmHg 24%
    13:00 +34°C° 0 mm 3 mps 758 mmHg 25%
    14:00 +34°C° 0 mm 4 mps 758 mmHg 25%
    15:00 +34°C° 0 mm 4 mps 758 mmHg 25%
    16:00 +33°C° 0 mm 4 mps 758 mmHg 30%
    17:00 +30°C° 0 mm 4 mps 758 mmHg 36%
    18:00 +28°C° 0 mm 3 mps 758 mmHg 41%
    19:00 +27°C° 0 mm 3 mps 758 mmHg 45%
    20:00 +26°C° 0 mm 2 mps 759 mmHg 50%
    21:00 +24°C° 0 mm 2 mps 759 mmHg 54%
    22:00 +24°C° 0 mm 2 mps 759 mmHg 56%
    23:00 +24°C° 0 mm 1 mps 759 mmHg 57%
    Show more